Sharm El Sheikh, Egypt

3:52 AM EET on May 28, 2017 (GMT +0200)
Sharm El Sheikh

Weather History for HESH - March, 2014

Change the Weather History Date:

Wednesday, March 5, 2014

  Actual Average Record
Temperature  
Mean Temperature 74 °F -  
Max Temperature 87 °F 79 °F - ()
Min Temperature 62 °F 62 °F - ()
Cooling Degree Days 10    
Growing Degree Days 24 (Base 50)    
Moisture  
Dew Point 45 °F    
Average Humidity 39    
Maximum Humidity 57    
Minimum Humidity 18    
Precipitation  
Precipitation 0.00 in 0.00 in - ()
Sea Level Pressure  
Sea Level Pressure 29.91 in    
Wind  
Wind Speed 3 mph ()    
Max Wind Speed 8 mph    
Max Gust Speed -    
Visibility 2.4 miles    
Events      
T = Trace of Precipitation, MM = Missing Value Source: Averaged Metar Reports

Daily Weather History Graph

Daily Weather History Graph

Search for Another Location

Airport or City:

Trip Planner

Search our weather history database for the weather conditions in past years. The results will help you decide how hot, cold, wet, or windy it might be!

Date:

Astronomy

Mar. 05, 2014 Rise Set
Actual Time 6:03 AM EET 5:45 PM EET
Civil Twilight 5:39 AM EET 6:08 PM EET
Nautical Twilight 5:12 AM EET 6:35 PM EET
Astronomical Twilight 4:45 AM EET 7:03 PM EET
Moon 8:39 AM EET (3/5) 10:06 PM EET (3/5)
Length of Visible Light 12h 28m
Length of Day
11h 41m
Waxing Crescent, 20% of the Moon is Illuminated
Mar 5
Waxing Crescent
Mar 8
First Quarter
Mar 16
Full
Mar 24
Last Quarter
Mar 30
New

Hourly Weather History & Observations

Time (EET) Temp. Heat Index Dew Point Humidity Pressure Visibility Wind Dir Wind Speed Gust Speed Precip Events Conditions
12:00 AM 66.2 °F - 30.2 °F 26% 29.89 in 2.5 mi NW 1.2 mph - N/A   Haze
1:00 AM 66.2 °F - 32.0 °F 28% 29.89 in 2.5 mi Calm Calm - N/A   Haze
2:00 AM 64.4 °F - 32.0 °F 30% 29.89 in 2.5 mi NNW 2.3 mph - N/A   Haze
3:00 AM 64.4 °F - 39.2 °F 40% 29.89 in 2.5 mi North 3.5 mph - N/A   Haze
4:00 AM 64.4 °F - 39.2 °F 40% 29.89 in 2.5 mi Variable 1.2 mph - N/A   Haze
5:00 AM 64.4 °F - 37.4 °F 37% 29.89 in 2.5 mi North 2.3 mph - N/A   Haze
6:00 AM 62.6 °F - 42.8 °F 48% 29.89 in 2.5 mi NNE 3.5 mph - N/A   Haze
7:00 AM 68.0 °F - 48.2 °F 49% 29.92 in 2.5 mi North 4.6 mph - N/A   Haze
8:00 AM 71.6 °F - 51.8 °F 50% 29.92 in 2.5 mi North 4.6 mph - N/A   Haze
9:00 AM 75.2 °F - 53.6 °F 47% 29.92 in 2.5 mi NNE 8.1 mph - N/A   Haze
10:00 AM 80.6 °F 80.5 °F 55.4 °F 42% 29.95 in 2.5 mi NE 6.9 mph - N/A   Haze
11:00 AM 82.4 °F - 51.8 °F 35% 29.92 in 1.9 mi NE 6.9 mph - N/A   Haze
12:00 PM 86.0 °F - 46.4 °F 25% 29.92 in 2.2 mi ENE 5.8 mph - N/A   Haze
1:00 PM 87.8 °F - 39.2 °F 18% 29.89 in 2.2 mi East 4.6 mph - N/A   Haze
2:00 PM 86.0 °F - 42.8 °F 22% 29.89 in 2.2 mi South 5.8 mph - N/A   Haze
3:00 PM 84.2 °F - 48.2 °F 29% 29.89 in 2.2 mi South 5.8 mph - N/A   Haze
5:00 PM 78.8 °F - 42.8 °F 28% 29.89 in 2.5 mi SSW 5.8 mph - N/A   Haze
6:00 PM 75.2 °F - 50.0 °F 41% 29.89 in 2.5 mi Variable 2.3 mph - N/A   Haze
7:00 PM 73.4 °F - 51.8 °F 47% 29.89 in 2.5 mi South 4.6 mph - N/A   Haze
8:00 PM 71.6 °F - 53.6 °F 53% 29.92 in 2.5 mi Variable 2.3 mph - N/A   Haze
9:00 PM 71.6 °F - 55.4 °F 57% 29.92 in 2.5 mi SW 3.5 mph - N/A   Haze
10:00 PM 69.8 °F - 51.8 °F 53% 29.95 in 2.5 mi Calm Calm - N/A   Haze
11:00 PM 66.2 °F - 48.2 °F 52% 29.95 in 2.5 mi Calm Calm - N/A   Haze